This demonstration page uses our WeatherBlox Daily Observations layout. Learn more.

38.88101, -77.10428

Hourly Observations for October 17, 2020

Temp ( °F °C ) Dew Point ( °F °C ) Humidity (%) Winds ( mph kmh ) Pressure ( in mb ) Visibility ( mi km ) Precip ( " mm )
12:52 am 00:52 Mostly Cloudy 53 11.7 40 4.4 61 61 N 10 17 30.2 1023 10 16.0934 0 0
1:52 am 01:52 Partly Cloudy 52 11.1 40 4.4 64 64 NW 9 15 30.22 1023 10 16.0934 0 0
2:52 am 02:52 Mostly Clear 50 10 41 5 71 71 NW 7 11 30.23 1024 10 16.0934 0 0
3:52 am 03:52 Clear 48 8.9 40 4.4 74 74 NNW 7 11 30.24 1024 10 16.0934 0 0
4:52 am 04:52 Clear 46 7.8 40 4.4 79 79 N 12 19 30.24 1024 10 16.0934 0 0
5:52 am 05:52 Clear 47 8.3 39 3.9 74 74 NNW 7 11 30.28 1025 10 16.0934 0 0
6:52 am 06:52 Clear 46 7.8 39 3.9 77 77 NW 8 13 30.29 1026 10 16.0934 0 0
7:52 am 07:52 Sunny 46 7.8 39 3.9 77 77 N 5 7 30.33 1027 10 16.0934 0 0
8:52 am 08:52 Sunny 50 10 40 4.4 68 68 NNW 9 15 30.36 1028 10 16.0934 0 0
9:52 am 09:52 Sunny 53 11.7 41 5 64 64 NW 7 11 30.39 1029 10 16.0934 0 0
10:52 am 10:52 Sunny 55 12.8 39 3.9 55 55 Calm 30.4 1029 10 16.0934 0 0
11:52 am 11:52 Mostly Sunny 59 15 39 3.9 48 48 NNW 9 15 30.39 1029 10 16.0934 0 0
12:52 pm 12:52 Mostly Sunny 61 16.1 37 2.8 41 41 NW 12 19 30.37 1029 10 16.0934 0 0
1:52 pm 13:52 Mostly Sunny 62 16.7 36 2.2 38 38 NNE 8 13 30.36 1028 10 16.0934 0 0
2:52 pm 14:52 Mostly Sunny 63 17.2 32 0 31 31 VRB 6 9 30.35 1028 10 16.0934 0 0
3:52 pm 15:52 Mostly Sunny 63 17.2 32 0 31 31 W 6 9 30.35 1028 9 14.48406 0 0
4:52 pm 16:52 Mostly Sunny 63 17.2 30 -1.1 29 29 Calm 30.35 1028 10 16.0934 0 0
5:52 pm 17:52 Mostly Sunny 61 16.1 30 -1.1 31 31 W 3 6 30.37 1028 10 16.0934 0 0
6:52 pm 18:52 Mostly Clear 58 14.4 35 1.7 42 42 S 6 9 30.37 1029 10 16.0934 0 0
7:52 pm 19:52 Clear 54 12.2 42 5.6 64 64 SSE 8 13 30.39 1029 10 16.0934 0 0
8:52 pm 20:52 Clear 53 11.7 42 5.6 66 66 S 7 11 30.4 1029 10 16.0934 0 0
9:52 pm 21:52 Clear 53 11.7 41 5 64 64 S 9 15 30.41 1030 10 16.0934 0 0
10:52 pm 22:52 Mostly Clear 53 11.7 41 5 64 64 SSE 8 13 30.41 1030 10 16.0934 0 0
11:52 pm 23:52 Mostly Clear 50 10 42 5.6 74 74 W 5 7 30.41 1030 10 16.0934 0 0

Powered by AerisWeather